When you browse on this site, cookies collect data to enhance your experience and personalize the content and advertising you see.
Visit our Privacy Policy to learn more. By continuing to use the site, you agree to this use of cookies and data.
  • In United States
  • List of Countries
  • For 7 days
  • Water Temperature
  • Satellite Maps
  • Weather Map
  • Weather Widgets
  • user-avatar
    Login

    Hourly Weather Tibissa

    Today, 11 December, Tuesday

    Time Temperature Precipitation Wind Pressure Humidity
    00:00 +6°C° 0 mm 4 mps 689 mmHg 87%
    01:00 +6°C° 0 mm 4 mps 689 mmHg 88%
    02:00 +6°C° 0 mm 4 mps 689 mmHg 87%
    03:00 +7°C° 0 mm 3 mps 688 mmHg 86%
    04:00 +5°C° 0 mm 3 mps 688 mmHg 85%
    05:00 +5°C° 0 mm 3 mps 688 mmHg 84%
    06:00 +6°C° 0 mm 2 mps 688 mmHg 82%
    07:00 +6°C° 0 mm 2 mps 688 mmHg 80%
    08:00 +7°C° 0 mm 2 mps 688 mmHg 71%
    09:00 +9°C° 0 mm 2 mps 689 mmHg 62%
    10:00 +10°C° 0 mm 2 mps 689 mmHg 53%
    11:00 +12°C° 0 mm 3 mps 689 mmHg 47%
    12:00 +13°C° 0 mm 3 mps 689 mmHg 42%
    13:00 +14°C° 0 mm 4 mps 689 mmHg 36%
    14:00 +14°C° 0 mm 4 mps 689 mmHg 36%
    15:00 +14°C° 0 mm 4 mps 688 mmHg 36%
    16:00 +14°C° 0 mm 3 mps 688 mmHg 36%
    17:00 +13°C° 0 mm 3 mps 688 mmHg 43%
    18:00 +12°C° 0 mm 2 mps 688 mmHg 49%
    19:00 +11°C° 0 mm 1 mps 687 mmHg 56%
    20:00 +10°C° 0 mm 1 mps 687 mmHg 58%
    21:00 +10°C° 0 mm 1 mps 687 mmHg 60%
    22:00 +9°C° 0 mm 1 mps 687 mmHg 61%
    23:00 +9°C° 0 mm 1 mps 687 mmHg 62%

    Tomorrow, 12 December, Wednesday

    Time Temperature Precipitation Wind Pressure Humidity
    00:00 +9°C° 0 mm 1 mps 687 mmHg 62%
    01:00 +8°C° 0 mm 1 mps 687 mmHg 63%
    02:00 +8°C° 0 mm 1 mps 687 mmHg 63%
    03:00 +8°C° 0 mm 1 mps 686 mmHg 63%
    04:00 +8°C° 0 mm 1 mps 686 mmHg 63%
    05:00 +7°C° 0 mm 1 mps 686 mmHg 63%
    06:00 +7°C° 0 mm 1 mps 686 mmHg 63%
    07:00 +7°C° 0 mm 1 mps 686 mmHg 63%
    08:00 +9°C° 0 mm 1 mps 687 mmHg 56%
    09:00 +11°C° 0 mm 1 mps 687 mmHg 48%
    10:00 +13°C° 0 mm 1 mps 688 mmHg 41%
    11:00 +14°C° 0 mm 1 mps 688 mmHg 37%
    12:00 +15°C° 0 mm 2 mps 688 mmHg 33%
    13:00 +16°C° 0 mm 2 mps 687 mmHg 29%
    14:00 +16°C° 0 mm 2 mps 687 mmHg 29%
    15:00 +16°C° 0 mm 2 mps 687 mmHg 29%
    16:00 +16°C° 0 mm 2 mps 686 mmHg 30%
    17:00 +14°C° 0 mm 2 mps 686 mmHg 35%
    18:00 +13°C° 0 mm 2 mps 686 mmHg 41%
    19:00 +11°C° 0 mm 1 mps 685 mmHg 47%
    20:00 +11°C° 0 mm 1 mps 685 mmHg 49%
    21:00 +10°C° 0 mm 1 mps 685 mmHg 51%
    22:00 +10°C° 0 mm 1 mps 685 mmHg 53%
    23:00 +9°C° 0 mm 1 mps 685 mmHg 53%

    Day after tomorrow, 13 December, Thursday

    Time Temperature Precipitation Wind Pressure Humidity
    00:00 +9°C° 0 mm 1 mps 684 mmHg 54%
    01:00 +9°C° 0 mm 1 mps 684 mmHg 54%
    02:00 +9°C° 0 mm 1 mps 684 mmHg 54%
    03:00 +9°C° 0 mm 1 mps 684 mmHg 54%
    04:00 +7°C° 0 mm 2 mps 683 mmHg 54%
    05:00 +7°C° 0 mm 2 mps 683 mmHg 54%
    06:00 +7°C° 0 mm 2 mps 683 mmHg 54%
    07:00 +8°C° 0 mm 1 mps 683 mmHg 55%
    08:00 +8°C° 0 mm 2 mps 683 mmHg 49%
    09:00 +10°C° 0 mm 2 mps 683 mmHg 43%
    10:00 +13°C° 0 mm 2 mps 684 mmHg 38%
    11:00 +13°C° 0 mm 3 mps 683 mmHg 35%
    12:00 +14°C° 0 mm 3 mps 683 mmHg 33%
    13:00 +15°C° 0 mm 4 mps 683 mmHg 30%
    14:00 +15°C° 0 mm 4 mps 682 mmHg 31%
    15:00 +15°C° 0 mm 5 mps 682 mmHg 32%
    16:00 +14°C° 0 mm 5 mps 681 mmHg 33%
    17:00 +13°C° 0 mm 5 mps 681 mmHg 38%
    18:00 +11°C° 0 mm 4 mps 681 mmHg 44%
    19:00 +10°C° 0 mm 4 mps 680 mmHg 49%
    20:00 +8°C° 0 mm 4 mps 680 mmHg 50%
    21:00 +8°C° 0 mm 4 mps 680 mmHg 51%
    22:00 +8°C° 0 mm 4 mps 680 mmHg 53%
    23:00 +8°C° 0 mm 4 mps 679 mmHg 53%

    14 December, Friday

    Time Temperature Precipitation Wind Pressure Humidity
    00:00 +7°C° 0 mm 4 mps 679 mmHg 53%
    01:00 +7°C° 0 mm 4 mps 679 mmHg 53%
    02:00 +7°C° 0 mm 4 mps 679 mmHg 54%
    03:00 +8°C° 0 mm 3 mps 679 mmHg 54%
    04:00 +8°C° 0 mm 3 mps 678 mmHg 55%
    05:00 +7°C° 0 mm 4 mps 678 mmHg 57%
    06:00 +6°C° 0 mm 4 mps 678 mmHg 59%
    07:00 +6°C° 0 mm 4 mps 678 mmHg 61%
    08:00 +6°C° 0 mm 5 mps 678 mmHg 56%
    09:00 +7°C° 0 mm 6 mps 679 mmHg 51%
    10:00 +6°C° 0 mm 7 mps 679 mmHg 47%
    11:00 +8°C° 0 mm 7 mps 679 mmHg 47%
    12:00 +8°C° 0 mm 7 mps 678 mmHg 48%
    13:00 +8°C° 0 mm 7 mps 678 mmHg 49%
    14:00 +8°C° 0.2 mm 7 mps 678 mmHg 52%
    15:00 +7°C° 0.2 mm 6 mps 678 mmHg 56%
    16:00 +7°C° 0.2 mm 6 mps 678 mmHg 60%
    17:00 +5°C° 0.1 mm 6 mps 679 mmHg 64%
    18:00 +5°C° 0.1 mm 6 mps 679 mmHg 67%
    19:00 +6°C° 0.1 mm 5 mps 680 mmHg 70%
    20:00 +4°C° 0.4 mm 6 mps 681 mmHg 74%
    21:00 +4°C° 0.4 mm 6 mps 681 mmHg 77%
    22:00 +4°C° 0.4 mm 6 mps 681 mmHg 81%
    23:00 +4°C° 1.2 mm 7 mps 682 mmHg 82%

    15 December, Saturday

    Time Temperature Precipitation Wind Pressure Humidity
    00:00 +5°C° 1.2 mm 9 mps 682 mmHg 84%
    01:00 +5°C° 1.2 mm 10 mps 683 mmHg 85%
    02:00 +4°C° 0.5 mm 11 mps 683 mmHg 85%
    03:00 +4°C° 0.5 mm 13 mps 683 mmHg 84%
    04:00 +4°C° 0.5 mm 14 mps 684 mmHg 84%
    05:00 +4°C° 0.1 mm 13 mps 684 mmHg 82%
    06:00 +4°C° 0.1 mm 13 mps 685 mmHg 81%
    07:00 +4°C° 0.1 mm 12 mps 685 mmHg 79%
    08:00 +4°C° 0.1 mm 13 mps 686 mmHg 76%
    09:00 +4°C° 0.1 mm 13 mps 686 mmHg 72%
    10:00 +4°C° 0.1 mm 14 mps 687 mmHg 69%
    11:00 +5°C° 0 mm 14 mps 687 mmHg 65%
    12:00 +5°C° 0 mm 14 mps 687 mmHg 62%
    13:00 +6°C° 0 mm 14 mps 688 mmHg 59%
    14:00 +5°C° 0 mm 13 mps 688 mmHg 59%
    15:00 +5°C° 0 mm 13 mps 688 mmHg 60%
    16:00 +5°C° 0 mm 13 mps 688 mmHg 61%
    17:00 +4°C° 0 mm 12 mps 689 mmHg 67%
    18:00 +4°C° 0 mm 12 mps 689 mmHg 72%
    19:00 +4°C° 0 mm 11 mps 689 mmHg 77%
    20:00 +4°C° 0 mm 11 mps 690 mmHg 79%
    21:00 +5°C° 0 mm 10 mps 690 mmHg 81%
    22:00 +5°C° 0 mm 9 mps 690 mmHg 83%
    23:00 +5°C° 0 mm 9 mps 690 mmHg 83%

    16 December, Sunday

    Time Temperature Precipitation Wind Pressure Humidity
    00:00 +5°C° 0 mm 9 mps 690 mmHg 83%
    01:00 +4°C° 0 mm 8 mps 690 mmHg 83%
    02:00 +4°C° 0 mm 8 mps 690 mmHg 84%
    03:00 +4°C° 0 mm 7 mps 690 mmHg 85%
    04:00 +4°C° 0 mm 7 mps 690 mmHg 87%
    05:00 +4°C° 0 mm 6 mps 691 mmHg 87%
    06:00 +5°C° 0 mm 5 mps 691 mmHg 87%
    07:00 +5°C° 0 mm 5 mps 691 mmHg 87%
    08:00 +6°C° 0 mm 4 mps 692 mmHg 82%
    09:00 +7°C° 0 mm 4 mps 692 mmHg 78%
    10:00 +7°C° 0 mm 4 mps 693 mmHg 73%
    11:00 +10°C° 0 mm 3 mps 692 mmHg 65%
    12:00 +11°C° 0 mm 3 mps 692 mmHg 58%
    13:00 +12°C° 0 mm 3 mps 692 mmHg 51%
    14:00 +13°C° 0 mm 2 mps 692 mmHg 48%
    15:00 +14°C° 0 mm 2 mps 692 mmHg 45%
    16:00 +14°C° 0 mm 2 mps 692 mmHg 42%
    17:00 +13°C° 0 mm 2 mps 692 mmHg 47%
    18:00 +12°C° 0 mm 1 mps 692 mmHg 52%
    19:00 +10°C° 0 mm 1 mps 692 mmHg 57%
    20:00 +10°C° 0 mm 1 mps 692 mmHg 56%
    21:00 +10°C° 0 mm 1 mps 692 mmHg 54%
    22:00 +10°C° 0 mm 1 mps 692 mmHg 53%
    23:00 +9°C° 0 mm 1 mps 692 mmHg 52%
    Show more